GW0312 Weather Reports


time (UTC)temp
F
wind
direction
speed
knots
gust
knots
rain 1hr
in
rain 24hr
in
rain mn
in
humidity
%
barometer
mb
20260505071556 63 255 4.3 9.6 0.00 0.00 0.00 75 1006.0
20260505070056 63 220 4.3 10.4 0.00 0.00 0.00 74 1006.0
20260505064603 63 191 5.2 9.6 0.00 0.00 0.00 75 1006.0
20260505063059 63 212 6.1 12.2 0.00 0.00 0.00 75 1006.1
20260505061628 62 255 6.1 10.4 0.00 0.00 0.00 74 1006.0
20260505060059 63 217 6.1 12.2 0.00 0.00 0.00 74 1005.8
20260505054614 63 256 7.0 10.4 0.00 0.00 0.00 74 1006.1
20260505053112 63 233 5.2 12.2 0.00 0.00 0.00 74 1006.5
20260505051611 63 245 7.8 14.8 0.00 0.00 0.00 73 1005.9
20260505050111 63 241 6.1 12.2 0.00 0.00 0.00 74 1006.0
20260505041602 63 231 7.0 12.2 0.00 0.00 0.00 73 1006.8
20260505040103 64 243 6.1 11.3 0.00 0.00 0.00 73 1007.0
20260505034559 64 248 6.1 10.4 0.00 0.00 0.00 72 1007.1
20260505033102 64 163 6.1 11.3 0.00 0.00 0.00 72 1007.3
20260505031556 64 158 3.5 9.6 0.00 0.00 0.00 71 1007.5
20260505030053 65 238 4.3 9.6 0.00 0.00 0.00 70 1007.3
20260505024609 65 257 4.3 8.7 0.00 0.00 0.00 69 1007.2
20260505023052 66 202 4.3 8.7 0.00 0.00 0.00 69 1006.9
20260505021611 66 196 4.3 8.7 0.00 0.00 0.00 68 1006.8
20260505020053 66 233 4.3 8.7 0.00 0.00 0.00 67 1006.4
20260505014558 67 224 5.2 8.7 0.00 0.00 0.00 67 1006.1
20260505013052 67 211 3.5 8.7 0.00 0.00 0.00 65 1005.9
20260505011558 68 234 3.5 7.8 0.00 0.00 0.00 64 1005.9
20260505010055 69 230 2.6 8.7 0.00 0.00 0.00 63 1005.8
20260505004553 70 262 3.5 7.8 0.00 0.00 0.00 62 1005.6
20260505003058 71 240 3.5 11.3 0.00 0.00 0.00 60 1005.5
20260505001556 72 231 5.2 10.4 0.00 0.00 0.00 57 1005.5
20260505000058 74 225 7.8 13.0 0.00 0.00 0.00 54 1005.6
20260504234556 75 257 6.1 9.6 0.00 0.00 0.00 55 1005.6
20260504233101 76 289 7.0 12.2 0.00 0.00 0.00 55 1005.6
20260504231554 76 243 4.3 11.3 0.00 0.00 0.00 55 1005.7
20260504230056 76 222 6.1 11.3 0.00 0.00 0.00 54 1005.7
20260504224555 76 276 7.8 16.5 0.00 0.00 0.00 55 1005.7
20260504223102 76 229 7.8 13.0 0.00 0.00 0.00 54 1005.8
20260504221605 76 229 6.1 13.0 0.00 0.00 0.00 54 1005.9
20260504220129 75 234 7.0 15.6 0.00 0.00 0.00 56 1005.9
20260504214555 76 245 8.7 16.5 0.00 0.00 0.00 52 1006.0
20260504213123 77 254 6.1 17.4 0.00 0.00 0.00 50 1006.3
20260504211554 76 287 9.6 16.5 0.00 0.00 0.00 54 1006.2
20260504204618 76 293 8.7 19.1 0.00 0.00 0.00 56 1006.6
20260504203056 76 260 10.4 16.5 0.00 0.00 0.00 56 1006.7
20260504201612 76 259 8.7 17.4 0.00 0.00 0.00 54 1006.8
20260504200108 77 239 8.7 15.6 0.00 0.00 0.00 57 1007.1
20260504194554 76 237 10.4 15.6 0.00 0.00 0.00 52 1007.1
20260504193059 76 248 8.7 17.4 0.00 0.00 0.00 53 1007.2
20260504191556 76 198 9.6 18.2 0.00 0.00 0.00 55 1007.3
20260504190057 76 277 8.7 15.6 0.00 0.00 0.00 57 1007.4
20260504184600 76 295 8.7 17.4 0.00 0.00 0.00 56 1007.4
20260504183105 76 252 10.4 20.9 0.00 0.00 0.00 54 1007.5
20260504181606 75 259 10.4 16.5 0.00 0.00 0.00 55 1007.4
20260504180100 75 250 10.4 21.7 0.00 0.00 0.00 57 1007.6
20260504174559 74 245 10.4 20.0 0.00 0.00 0.00 58 1007.9
20260504173102 74 307 12.2 19.1 0.00 0.00 0.00 60 1007.8
20260504171606 74 195 7.8 17.4 0.00 0.00 0.00 59 1007.8
20260504100103 58 263 3.5 9.6 0.00 0.00 0.00 69 1009.9
20260504081555 60 249 3.5 7.8 0.00 0.00 0.00 68 1010.2
20260504080107 60 238 5.2 8.7 0.00 0.00 0.00 67 1010.4